Home > Weather > Port Sudan > Past weeks

Flag for Sudan Weather for the Past 2 Weeks in Port Sudan, Sudan

Now
77 °F

Sunny.


Feels Like: 79 °F
Forecast: 64 / 77 °F
Wind: 14 mph from Northwest

Location: Jeddah King Abdul Aziz International Airport

Current Time: Feb 7, 2016 at 4:36:03 PM

Latest Report: Feb 7, 2016 at 4:00 PM


Visibility: 10 mi

Pressure: 29.98 "Hg

Humidity: 51%

Dew point: 57 °F

Location of Port SudanLocation

Historic Weather in Port Sudan — Graph

°F

Port Sudan Temperature Yesterday

Maximum temperature yesterday: 84 °F (at 11:00 AM)
Minimum temperature yesterday: 73 °F (at 3:00 AM)
Average temperature yesterday: 78 °F

High & Low Weather Summary for the Past Weeks

 TemperatureHumidityPressure
High95 °F (Feb 4, 2:00 PM)79% (Feb 5, 7:00 PM)30.15 "Hg (Feb 5, 7:00 PM)
Low59 °F (Jan 28, 5:00 AM)16% (Feb 4, 2:00 PM)29.86 "Hg (Jan 23, 3:00 PM)
Average73 °F50%30.02 "Hg
* Reported Jan 23 3:00 PM — Feb 7 3:00 PM, Port Sudan, Weather by CustomWeather, © 2016

Note: Actual official high and low records may vary slightly from our data, if they occured in-between our weather recording intervals... More about our weather records

Advertising

Port Sudan Weather History for the Previous 24 Hours

 ConditionsComfort  
Time TempWeatherWind HumidityBarometerVisibility
3:00 PM
Sun, Feb 7
77 °FPassing clouds.16 mph54%29.98 "HgN/A
2:00 PM79 °FPassing clouds.13 mph45%29.98 "HgN/A
1:00 PM79 °FPassing clouds.13 mph45%29.98 "HgN/A
12:00 PM79 °FPassing clouds.14 mph45%30.01 "HgN/A
11:00 AM77 °FPassing clouds.14 mph47%30.04 "HgN/A
10:00 AM75 °FPassing clouds.13 mph54%30.04 "HgN/A
9:00 AM73 °FPassing clouds.10 mph61%30.01 "HgN/A
8:00 AM72 °FSunny.8 mph73%29.98 "Hg10 mi
7:00 AM70 °FSunny.6 mph78%29.95 "Hg10 mi
6:00 AM72 °FPassing clouds.7 mph78%29.95 "HgN/A
5:00 AM72 °FPassing clouds.8 mph73%29.92 "HgN/A
4:00 AM72 °FPassing clouds.6 mph78%29.92 "HgN/A
3:00 AM73 °FPassing clouds.8 mph74%29.92 "HgN/A
2:00 AM73 °FPassing clouds.9 mph74%29.92 "HgN/A
1:00 AM75 °FPassing clouds.12 mph69%29.92 "HgN/A
12:00 AM75 °FPassing clouds.15 mph78%29.95 "HgN/A
11:00 PM
Sat, Feb 6
75 °FPassing clouds.14 mph78%29.95 "HgN/A
10:00 PM77 °FPassing clouds.13 mph74%29.95 "HgN/A
9:00 PM77 °FPassing clouds.16 mph79%29.92 "HgN/A
8:00 PM77 °FPassing clouds.10 mph79%29.92 "HgN/A
7:00 PM79 °FPassing clouds.16 mph74%29.89 "HgN/A
6:00 PM79 °FScattered clouds.12 mph74%29.89 "HgN/A
5:00 PM81 °FPassing clouds.12 mph66%29.86 "HgN/A
4:00 PM81 °FScattered clouds.10 mph70%29.86 "HgN/A
Weather by CustomWeather, © 2016

See weather overviewHow to use our weather pages